RH
94 94 95 94 95 95 94 94 93 92 90 90 89 88 87 87 87 86 82 79 76 69 65 61 60 59 59 64 69 71 74 78 84 80 76 72 69 69 75 78 82 75 79
90 89 95 94 94 94 94 92 92 91 90 88 89 88 88 88 86 82 80 78 71 62 60 61 62 62 63 67 69 70 72 78 83 82 80 78 76 70 69 78 79 75 76
86 91 90 94 94 93 91 91 90 89 87 86 88 88 87 82 78 76 76 74 67 61 62 63 63 62 64 66 70 72 76 75 77 81 80 81 74 70 71 76 74 70 68
86 87 88 94 92 91 91 89 88 86 87 87 88 85 82 77 75 73 72 72 68 63 63 62 62 62 65 69 75 76 81 81 80 81 79 78 67 72 72 72 71 70 70
88 89 90 93 92 91 91 90 90 89 89 88 88 83 77 75 73 71 73 72 69 64 62 61 62 64 70 77 77 78 80 84 84 77 87 83 80 67 70 74 74 74 74
93 92 95 94 94 92 90 91 91 91 91 89 86 82 76 73 71 72 76 73 68 65 64 64 64 69 78 78 77 76 77 76 74 79 78 76 71 63 65 69 76 76 80
94 92 91 94 92 90 91 91 91 90 89 88 86 83 80 73 72 75 80 78 75 68 68 68 68 75 76 76 78 78 76 72 65 78 85 85 76 65 65 70 73 74 74
90 89 82 85 84 85 92 93 92 90 90 89 87 85 81 80 80 80 81 80 79 78 76 74 75 75 75 77 79 80 83 70 60 75 85 89 76 66 66 69 73 79 76
90 93 95 89 80 93 94 93 92 90 90 90 88 85 84 85 84 82 82 81 80 79 77 74 73 76 75 78 82 84 81 73 63 68 69 89 74 65 63 65 67 71 74
94 93 94 84 94 94 93 92 91 90 89 87 85 85 85 84 83 82 82 80 79 77 76 71 73 75 75 77 84 86 78 70 71 78 84 85 70 58 58 61 66 70 73
96 91 88 95 95 96 94 87 88 86 86 85 84 86 87 83 81 80 81 79 78 77 76 73 76 76 79 79 85 80 72 64 73 75 84 75 65 52 58 62 67 69 68
94 93 95 94 94 89 76 90 90 81 86 83 82 82 78 84 84 78 80 79 79 78 80 81 80 78 73 69 70 71 65 63 66 70 77 70 60 50 57 62 66 68 68
86 92 96 89 88 86 84 91 90 88 84 82 80 81 82 86 88 92 95 95 92 84 82 68 64 65 64 66 67 68 66 64 70 68 70 69 60 51 55 61 64 66 66
85 87 94 92 85 82 84 81 83 82 90 92 94 91 96 98 96 96 96 93 86 78 74 74 74 67 66 60 58 58 58 62 61 60 60 71 67 54 54 61 61 61 60
90 82 80 80 73 83 88 87 94 97 98 98 97 94 96 97 98 95 93 83 84 80 75 73 70 65 62 57 56 52 53 50 46 50 59 66 73 60 58 58 55 54 53
79 70 68 68 77 84 91 89 93 95 96 98 98 96 92 96 94 94 92 90 87 78 74 71 69 67 65 59 53 53 54 51 49 52 52 63 78 72 61 53 49 50 49
64 64 68 80 83 78 81 82 88 87 94 95 97 94 89 86 86 84 86 79 76 76 74 71 68 65 64 56 54 53 55 53 51 49 47 53 80 77 67 50 45 49 46
61 60 68 70 78 78 84 90 86 92 96 97 96 91 86 84 78 76 78 80 84 81 77 74 70 66 68 66 60 59 57 56 53 52 51 47 70 81 72 61 49 47 45
58 62 83 84 88 92 95 96 96 94 96 96 92 86 80 79 76 78 78 82 80 78 77 70 74 69 69 67 53 56 57 60 58 49 53 50 49 56 65 58 62 59 47
59 74 83 88 94 96 96 97 98 97 96 92 86 79 75 78 76 80 79 77 73 72 76 71 66 70 72 69 47 49 63 62 60 64 63 52 53 53 51 49 51 58 59
80 86 88 92 94 92 94 98 99 97 96 90 82 74 72 72 73 75 76 71 69 68 72 67 70 67 71 75 68 72 70 63 61 64 67 68 61 56 53 49 50 56 54
91 90 93 88 91 88 85 96 92 92 92 82 80 76 70 72 74 70 72 69 66 70 69 68 70 76 75 75 70 80 76 72 69 58 67 66 70 65 58 50 54 54 58
96 95 90 89 89 87 83 89 87 81 81 80 80 78 73 70 68 67 65 67 67 70 69 70 72 71 74 77 75 72 82 84 86 74 67 74 74 72 70 63 58 50 50
94 96 88 86 87 86 92 91 82 80 76 78 80 77 74 66 64 61 63 66 68 72 70 76 71 76 81 80 79 67 77 79 90 94 81 72 75 68 74 72 65 56 55
96 95 94 94 92 89 91 86 77 77 76 80 81 76 76 72 66 61 62 66 72 77 74 73 76 74 81 80 83 86 86 90 90 95 94 90 83 74 73 72 68 66 60
95 97 97 96 92 89 85 79 76 76 82 80 79 76 65 61 64 62 63 69 70 71 72 76 78 79 84 90 89 91 90 91 93 95 95 91 94 85 75 71 64 65 65
Wind_Speed
9 14 18 17 17 17 16 14 13 13 16 19 20 20 20 20 19 18 18 16 16 17 17 16 16 16 16 17 17 16 14 13 11 13 15 16 18 19 18 17 15 12 16
12 14 23 21 18 18 16 15 14 13 17 19 20 20 19 19 18 18 17 16 16 17 16 16 15 15 17 18 17 14 11 9 10 12 13 15 16 18 19 16 16 13 15
15 12 16 22 21 19 17 16 15 15 18 19 20 19 19 19 18 18 17 15 16 16 16 16 15 15 16 17 15 13 9 4 9 10 11 6 9 17 18 16 16 16 16
15 12 14 26 20 19 17 17 15 16 18 18 19 19 18 18 18 18 17 14 14 16 15 15 15 15 15 16 15 17 20 14 11 12 6 5 8 16 17 16 16 16 16
12 12 15 25 23 20 17 18 15 16 17 16 17 19 19 18 18 18 15 14 14 15 14 14 14 13 12 11 15 16 15 16 13 10 6 5 3 12 16 15 13 14 13
9 10 14 20 20 20 19 18 16 14 15 15 17 18 18 18 18 17 14 13 14 14 14 12 11 11 10 12 16 14 16 14 12 7 5 6 5 14 16 15 13 12 11
8 10 12 19 20 20 19 18 16 14 15 14 16 17 16 17 17 16 13 13 11 12 11 11 8 10 12 13 15 14 10 11 7 6 4 4 6 13 14 13 12 12 11
9 15 10 14 19 19 17 15 13 14 14 13 15 15 15 14 15 15 13 11 11 9 9 7 8 9 10 12 13 14 12 8 8 6 5 4 8 11 13 12 12 11 12
13 13 10 11 16 16 14 13 13 13 12 12 13 14 13 13 13 13 12 10 10 8 6 5 8 9 9 10 10 11 11 10 7 4 4 3 8 11 12 12 11 12 13
7 13 16 11 9 8 9 11 12 13 11 11 12 11 11 11 12 10 9 8 8 5 3 5 7 7 8 9 9 9 11 10 6 5 3 1 7 9 9 10 11 12 13
10 8 15 11 7 6 6 9 12 13 12 9 9 8 6 4 6 6 6 6 5 3 3 8 8 9 9 9 9 9 9 4 5 3 1 3 5 7 8 10 11 12 13
10 6 7 10 10 8 7 6 5 6 4 4 5 5 3 4 4 3 5 5 5 6 7 6 8 9 9 5 4 7 3 4 3 2 1 3 6 6 8 10 12 13 14
10 7 9 10 8 6 6 4 3 3 3 2 5 4 2 2 3 3 3 3 3 4 3 7 6 5 7 5 5 5 5 6 4 3 3 4 4 6 7 9 12 13 13
11 7 3 8 6 5 4 5 4 3 3 3 3 6 5 3 4 3 4 5 4 3 6 5 4 5 7 6 6 6 7 5 4 3 5 8 6 6 5 9 10 11 11
8 5 7 8 6 5 5 4 4 4 4 4 4 5 4 4 5 5 4 4 4 3 4 5 4 5 6 6 6 6 7 6 6 4 3 12 4 4 5 8 9 9 9
9 7 8 9 6 7 5 7 5 4 4 4 4 5 7 6 6 5 4 4 4 4 4 5 5 5 4 5 7 6 6 5 6 6 4 4 2 4 8 8 8 7 8
10 11 7 8 9 10 9 6 4 4 4 5 4 6 7 6 6 6 4 4 4 4 6 5 6 6 6 5 6 5 6 7 7 8 8 6 2 4 6 6 5 7 7
13 12 8 9 9 10 8 5 4 4 4 4 4 4 6 7 7 5 5 4 4 4 4 5 4 4 4 4 3 4 4 5 6 6 5 7 6 4 4 6 5 8 6
14 11 9 10 10 9 8 6 5 6 4 4 4 4 6 6 6 5 5 4 5 5 5 3 4 3 3 3 2 4 4 4 5 5 6 7 7 6 3 7 10 11 7
13 11 12 10 10 8 7 6 4 4 3 3 4 4 5 4 6 6 5 5 5 4 4 3 2 2 2 0 1 3 3 2 4 4 4 5 5 6 4 5 4 5 13
8 12 13 13 11 10 6 4 3 4 2 2 3 5 5 5 7 6 5 5 4 5 4 3 2 2 1 1 2 2 3 2 3 2 3 3 4 4 4 4 3 3 3
14 12 10 12 12 8 6 3 4 4 2 3 3 4 6 7 7 6 6 5 5 5 4 3 2 1 1 1 2 1 3 4 3 3 1 2 2 2 3 5 3 3 3
12 12 11 12 10 7 6 4 4 4 4 3 2 3 4 7 6 7 6 6 5 4 4 3 3 3 1 1 1 3 2 3 3 2 2 1 1 2 3 3 3 4 4
13 8 10 9 9 6 6 5 7 5 5 4 4 3 4 7 7 7 6 5 4 2 3 2 2 2 3 2 1 2 2 4 2 4 2 4 3 2 2 2 3 5 5
14 12 9 7 6 6 8 7 8 5 3 3 3 6 4 3 2 4 4 4 4 4 4 4 3 2 1 2 3 2 1 1 2 3 5 3 3 4 4 2 3 2 3
10 8 7 8 8 7 7 7 8 9 7 6 4 4 4 3 5 5 7 5 4 5 4 3 2 2 3 3 2 3 4 3 3 3 4 5 4 5 3 2 3 3 4
Wind_Direction
164 137 126 121 113 107 107 107 108 110 105 100 95 92 89 88 86 83 82 82 80 76 71 64 57 52 49 47 50 52 55 58 58 72 74 76 71 70 62 60 51 49 50
152 143 133 128 118 115 114 115 113 114 106 100 97 93 90 88 90 88 88 85 84 81 77 69 59 50 48 48 45 41 48 65 75 69 65 60 69 69 66 58 58 52 46
144 138 130 120 119 119 122 119 118 116 107 103 98 93 93 94 95 93 89 89 86 84 78 70 60 50 46 48 43 24 27 104 105 84 72 64 63 68 63 54 50 50 48
139 141 141 118 121 121 122 119 122 114 106 105 105 103 103 102 101 100 95 92 92 86 80 75 65 52 44 46 40 33 41 95 104 77 67 63 71 69 67 59 54 48 40
136 147 143 125 128 126 126 119 115 113 111 112 110 110 109 109 106 105 101 97 95 91 84 73 66 58 43 47 48 45 55 76 96 92 88 75 72 72 65 59 55 55 48
126 131 118 116 116 118 122 117 114 117 115 116 114 113 115 115 113 110 105 101 100 95 88 76 63 50 35 33 60 46 73 71 68 55 62 72 58 74 70 60 49 45 41
119 117 126 116 119 122 118 115 122 122 113 121 119 118 119 120 117 113 109 110 108 102 96 83 70 45 31 27 47 47 53 89 83 79 59 60 72 72 70 66 54 42 37
107 106 107 112 123 118 109 116 123 119 122 126 122 122 127 128 122 117 121 122 112 111 98 91 72 52 37 31 24 57 31 77 90 76 46 32 68 71 68 61 50 39 28
123 118 116 124 128 116 121 129 126 123 125 127 129 133 137 135 130 133 131 135 127 121 117 106 69 47 26 22 41 34 47 86 98 88 82 28 65 65 61 56 50 46 37
148 140 144 128 113 133 132 133 127 124 135 144 143 141 141 142 135 128 134 127 116 107 96 63 55 44 27 9 32 33 70 65 94 88 71 84 77 65 61 58 53 50 42
135 145 131 135 138 131 133 143 137 141 144 151 135 137 124 118 107 120 118 100 87 75 19 23 22 24 11 19 58 54 60 66 107 88 62 30 25 58 68 67 63 57 46
124 152 154 158 151 158 156 142 130 124 140 144 137 144 89 107 108 98 80 77 43 19 13 15 13 34 46 23 33 38 28 79 78 95 172 11 357 36 66 72 69 64 56
147 204 182 149 166 169 142 133 121 134 135 115 112 116 131 134 93 94 63 62 40 55 42 60 61 51 50 39 31 33 30 21 21 24 8 353 350 25 71 83 81 76 67
195 197 203 146 173 160 146 154 143 114 116 128 123 135 128 87 79 75 76 76 75 48 73 64 57 54 48 45 43 35 38 37 24 13 3 359 0 31 82 93 90 85 77
212 210 174 172 163 145 115 104 89 121 108 128 127 108 118 118 104 88 78 84 80 78 79 70 62 59 45 41 37 36 41 26 13 5 2 3 10 41 99 103 95 86 82
187 176 165 163 132 124 110 118 128 122 121 97 91 100 90 102 105 102 95 90 85 84 81 80 69 61 46 37 28 25 30 20 14 7 358 0 305 139 137 119 103 109 97
178 166 157 132 134 126 123 122 102 111 118 106 101 96 102 107 110 118 119 89 82 77 75 65 53 48 42 24 33 23 17 10 17 15 11 0 289 160 128 103 75 103 92
171 169 142 146 134 124 125 111 107 99 100 96 93 98 108 110 116 109 104 95 111 101 83 64 53 55 51 37 19 15 10 21 16 23 10 21 19 26 40 30 70 102 86
171 156 135 132 141 127 119 107 103 108 95 106 119 116 120 116 117 108 95 82 87 71 67 81 54 92 63 20 57 16 356 22 28 31 22 30 34 33 26 17 12 26 23
164 148 145 145 134 129 120 113 88 92 111 117 117 125 126 125 115 92 86 88 94 86 76 76 109 70 129 123 44 359 307 332 68 47 41 34 33 49 45 26 27 68 54
142 152 158 152 156 146 136 130 120 134 141 133 156 140 127 120 103 106 106 105 103 95 124 156 147 107 44 23 58 327 322 318 84 120 56 61 48 38 21 40 30 6 45
160 163 159 163 164 163 152 140 139 138 179 153 152 160 140 126 132 130 139 137 132 129 136 125 132 146 253 69 126 112 337 331 328 349 71 67 36 6 12 2 19 31 26
161 166 167 168 165 169 156 116 75 80 76 97 152 141 159 139 142 141 144 154 156 148 162 177 162 155 181 316 124 140 343 260 323 308 330 238 47 355 326 341 5 353 344
169 159 161 169 184 172 155 148 156 156 165 182 168 162 160 160 165 160 169 158 153 121 76 37 116 157 145 223 313 202 193 171 236 316 330 317 309 285 252 301 324 327 337
158 164 177 187 187 179 180 177 173 163 161 134 136 153 171 166 158 70 84 90 100 88 81 58 30 10 206 188 192 224 268 190 195 207 296 289 320 272 290 282 263 266 311
160 154 172 168 197 191 179 175 167 155 142 131 134 136 99 94 98 71 81 66 75 67 52 41 45 330 285 253 234 211 195 193 209 231 283 288 240 268 267 281 310 320 314